ELECTRON KICK STAGE R/B, 63207

Orbit data source: Space-Track

ELECTRON KICK STAGE R/B, 63207 is space debris in LEO originally from a launch on Sat, 15 Mar 2025 UTC launched from the Rocket Lab Launch Complex (RLLC). Debris objects in space refer to the collection of defunct objects orbiting the Earth. Examples of debris include non-operational satellites, rocket bodies, and fragments generated from explosions, collisions, or faulty payload assembly.

Loading next visibility...
Identifier
63207, 2025-050C
Orbit
LEO
Last TLE update
2 days ago
Origin
Manufacturer
Rocket Lab
Mission
Spacecraft
Bus & Motor
KICK STAGE, CURIE
Mass
~42 kg wet, ~42 kg dry
Launch date (UTC)
2025-03-15 (2 months ago)
Launch vehicle
Unknown
Launch site
Rocket Lab Launch Complex (RLLC)
Object type
Payload
Rocket body
Debris
Shape & HBR
Unknown
Radar Cross Section
Medium (>0.1 m² and <1 m²)

Expand to show TLE details & history

TLE from 2 days ago
0 ELECTRON KICK STAGE R/B
1 63207U 25050C   25118.63345517  .00009670  00000-0  81215-3 0  9993
2 63207  42.0186 222.8670 0006944 226.3922 133.6328 14.98346168  6694
Epoch: 2025-04-28T15:12Z
Definitive object data (Epoch: 2025-04-28T15:12:10.526Z)
Latitude
0.00001°
Longitude
137.97848°
Altitude
575.008 km
Speed
7.573 km/s
True Right ascension
14h 51m 28s
True Declination
0° 00' 00"
Sunlit
Object was in full shadow at TLE epoch
Visualization TLE readout
Latitude
-6.8654°
Longitude
-44.45282°
Altitude
569.495 km
Speed
7.579 km/s
Apparent Right ascension
04h 22m 05s
Apparent Declination
-25° 41' 34"
Sunlit
Object is in daylight
Visualization observer readout
Local Sidereal Time
18:48:44
Azimuth
76.284° E
Elevation
-56.37°
Doppler factor
1
Orbital elements
Apogee altitude
578.916 km
Perigee altitude
569.261 km
Semi-major axis
6,952.226 km
Eccentricity
0.0006944
Inclination
42.0186°
RAAN
222.867°
Arg. of periapsis
226.3922°
True anomaly
133.69036°
Mean anomaly
133.6328°
Eccentric anomaly
133.66158°
Mean motion
3.74419 °/min
BSTAR
0.00081215
Orbital period
96.15 mins
Loading maneuver chart data...
Loading SW <> Apogee altitude chart data...
Loading historical data...
Loading historical data...
Loading historical data...
Loading historical data...
Loading historical data...
Loading historical data...
Loading historical data...
Other satellites on launch #50 in the year 2025 (2025-03-15 UTC)

ELECTRON KICK STAGE R/B Visibility forecast

Observer location: undefined°, undefined°

Span
Click to sort rows by Start time (UTC) header in descending order
Start Az.
Max El. time (UTC)
Max El. Az.
Max El.
End time (UTC)
End Az.
7 mins2025-04-30 12:19:35.694Z276.335° WNW2025-04-30 12:23:35.694Z29.235° NE41.442°2025-04-30 12:26:35.694Z78.43° E
7 mins2025-04-30 14:01:35.694Z284.716° WNW2025-04-30 14:04:35.694Z115.428° SE44.803°2025-04-30 14:08:35.694Z106.732° ESE
6 mins2025-04-30 15:42:35.694Z262.407° W2025-04-30 15:45:35.694Z201.702° SSW25.307°2025-04-30 15:48:35.694Z154.22° SSE
5 mins2025-05-01 09:00:35.694Z189.618° SSW2025-05-01 09:02:35.694Z144.041° SSE26.186°2025-05-01 09:05:35.694Z92.043° ESE
6 mins2025-05-01 10:40:35.694Z254.191° W2025-05-01 10:43:35.694Z74.635° E43.873°2025-05-01 10:46:35.694Z75.174° E
|